GW6910 Weather Reports


time (UTC)temp
C
wind
direction
speed
KPH
gust
KPH
rain 1hr
cm
rain 24hr
cm
rain mn
cm
humidity
%
barometer
mb
20260503021525 7 273 0.0 3.2 0.00 0.05 0.00 90 1014.4
20260503021016 7 332 0.0 3.2 0.00 0.05 0.00 89 1014.4
20260503020517 8 334 0.0 1.6 0.00 0.05 0.00 89 1014.4
20260503020035 8 335 0.0 3.2 0.00 0.05 0.00 90 1014.5
20260503015511 8 333 0.0 3.2 0.00 0.05 0.00 88 1014.5
20260503015017 8 226 0.0 3.2 0.00 0.05 0.00 88 1014.5
20260503014528 8 235 0.0 1.6 0.00 0.05 0.00 88 1014.6
20260503014011 8 235 0.0 3.2 0.00 0.05 0.00 89 1014.6
20260503013505 8 242 0.0 3.2 0.00 0.05 0.00 89 1014.6
20260503013018 8 246 0.0 3.2 0.00 0.05 0.00 87 1014.6
20260503012511 9 271 0.0 1.6 0.00 0.05 0.00 89 1014.5
20260503012015 9 223 0.0 1.6 0.00 0.05 0.00 89 1014.5
20260503011524 8 212 0.0 3.2 0.00 0.05 0.00 89 1014.4
20260503011007 9 216 0.0 3.2 0.00 0.05 0.00 88 1014.6
20260503010511 9 216 0.0 3.2 0.00 0.05 0.00 87 1014.6
20260503010026 9 216 0.0 3.2 0.00 0.05 0.00 87 1014.7
20260503005509 9 216 0.0 3.2 0.00 0.05 0.00 86 1014.8
20260503005013 10 216 0.0 3.2 0.00 0.05 0.00 85 1014.9
20260503004527 10 216 0.0 3.2 0.00 0.05 0.00 85 1014.9
20260503004011 10 215 0.0 3.2 0.00 0.05 0.00 86 1014.9
20260503003513 10 218 0.0 3.2 0.00 0.05 0.00 86 1015.0
20260503003033 10 210 1.6 3.2 0.00 0.05 0.00 86 1015.1
20260503002506 10 207 0.0 3.2 0.00 0.05 0.00 86 1015.1
20260503002011 10 207 0.0 3.2 0.00 0.05 0.00 85 1015.1
20260503001522 10 207 0.0 3.2 0.00 0.05 0.00 86 1015.1
20260503001007 10 178 0.0 0.0 0.00 0.05 0.00 87 1015.2
20260503000507 10 178 0.0 0.0 0.00 0.05 0.00 87 1015.2
20260503000030 10 178 0.0 3.2 0.00 0.05 0.00 86 1015.2
20260502235507 10 178 0.0 3.2 0.00 0.05 0.00 86 1015.4
20260502235008 10 177 0.0 3.2 0.00 0.05 0.00 85 1015.4
20260502234546 10 177 0.0 0.0 0.00 0.05 0.00 86 1015.3
20260502234011 10 177 0.0 0.0 0.00 0.05 0.00 86 1015.4
20260502233512 10 177 0.0 0.0 0.00 0.05 0.00 86 1015.4
20260502233025 10 177 0.0 0.0 0.00 0.05 0.00 85 1015.4
20260502232509 10 177 0.0 0.0 0.00 0.05 0.00 86 1015.5
20260502232008 10 177 0.0 0.0 0.00 0.05 0.00 86 1015.4
20260502231532 10 177 0.0 0.0 0.00 0.05 0.00 84 1015.4
20260502231008 10 177 0.0 0.0 0.00 0.05 0.00 84 1015.4
20260502230507 10 177 0.0 0.0 0.00 0.05 0.00 84 1015.4
20260502230025 10 177 0.0 0.0 0.00 0.05 0.00 85 1015.4
20260502225503 10 177 0.0 0.0 0.00 0.05 0.00 85 1015.5
20260502225004 10 177 0.0 3.2 0.00 0.05 0.00 84 1015.5
20260502224507 10 177 0.0 3.2 0.00 0.05 0.00 84 1015.5
20260502224008 10 177 0.0 3.2 0.00 0.05 0.00 84 1015.5
20260502223505 10 177 0.0 3.2 0.00 0.05 0.00 83 1015.6
20260502223032 10 217 0.0 3.2 0.00 0.05 0.00 84 1015.6
20260502222508 10 217 0.0 3.2 0.00 0.05 0.00 83 1015.5
20260502222007 10 217 0.0 1.6 0.00 0.05 0.00 83 1015.5
20260502221516 10 217 0.0 1.6 0.00 0.05 0.00 83 1015.6
20260502221013 10 217 0.0 1.6 0.00 0.05 0.00 82 1015.6
20260502220510 11 217 0.0 3.2 0.00 0.05 0.00 80 1015.7
20260502220024 11 217 0.0 3.2 0.00 0.05 0.00 81 1015.6
20260502215510 11 216 0.0 1.6 0.00 0.05 0.05 82 1015.6
20260502215008 11 216 0.0 0.0 0.00 0.05 0.05 82 1015.6
20260502214523 11 216 0.0 1.6 0.00 0.05 0.05 82 1015.6
20260502214007 11 216 0.0 1.6 0.00 0.05 0.05 81 1015.6
20260502213504 11 223 0.0 0.0 0.00 0.05 0.05 80 1015.6
20260502213013 11 223 0.0 3.2 0.00 0.05 0.05 80 1015.6
20260502212505 11 223 0.0 3.2 0.00 0.05 0.05 80 1015.6
20260502212006 11 223 0.0 3.2 0.00 0.05 0.05 79 1015.7
20260502211516 11 223 0.0 3.2 0.00 0.05 0.05 78 1015.7
20260502211007 12 223 0.0 3.2 0.00 0.05 0.05 78 1015.7
20260502210511 12 223 0.0 3.2 0.00 0.05 0.05 77 1015.7
20260502210020 12 223 0.0 3.2 0.00 0.05 0.05 76 1015.7
20260502205513 12 223 0.0 3.2 0.00 0.05 0.05 77 1015.6
20260502205010 12 223 0.0 3.2 0.00 0.05 0.05 77 1015.6
20260502204535 12 223 0.0 3.2 0.00 0.05 0.05 76 1015.6
20260502204008 12 223 0.0 3.2 0.00 0.05 0.05 76 1015.6
20260502203511 12 223 0.0 0.0 0.00 0.05 0.05 77 1015.6
20260502203008 12 223 0.0 3.2 0.00 0.05 0.05 75 1015.6
20260502202503 13 223 0.0 3.2 0.00 0.05 0.05 74 1015.6
20260502202007 13 223 0.0 3.2 0.00 0.05 0.05 75 1015.6
20260502201511 13 196 0.0 3.2 0.00 0.05 0.05 75 1015.6
20260502201007 13 196 0.0 3.2 0.00 0.05 0.05 73 1015.6
20260502200507 13 196 0.0 3.2 0.00 0.05 0.05 74 1015.6
20260502200018 13 198 0.0 3.2 0.00 0.05 0.05 73 1015.6
20260502195508 13 194 0.0 3.2 0.00 0.05 0.05 72 1015.6
20260502195007 13 194 0.0 3.2 0.00 0.05 0.05 73 1015.6
20260502194527 13 194 0.0 3.2 0.00 0.05 0.05 73 1015.6
20260502194009 14 194 0.0 3.2 0.00 0.05 0.05 70 1015.5
20260502193509 14 211 0.0 3.2 0.00 0.05 0.05 70 1015.5
20260502193024 14 152 0.0 3.2 0.00 0.05 0.05 72 1015.6
20260502192515 15 152 0.0 3.2 0.00 0.05 0.05 69 1015.5
20260502192003 15 205 0.0 4.8 0.00 0.05 0.05 64 1015.4
20260502191508 15 272 1.6 4.8 0.00 0.05 0.05 66 1015.4
20260502191004 16 198 0.0 3.2 0.00 0.05 0.05 65 1015.4
20260502190507 16 189 1.6 3.2 0.00 0.05 0.05 65 1015.4
20260502190018 16 227 0.0 3.2 0.00 0.05 0.05 64 1015.3
20260502185504 16 263 0.0 3.2 0.00 0.05 0.05 62 1015.3
20260502185008 16 266 0.0 3.2 0.00 0.05 0.05 63 1015.3
20260502184523 17 266 0.0 3.2 0.00 0.05 0.05 58 1015.3
20260502184009 17 207 0.0 3.2 0.00 0.05 0.05 58 1015.3
20260502183510 17 258 1.6 3.2 0.00 0.05 0.05 58 1015.2
20260502183024 18 234 0.0 3.2 0.00 0.05 0.05 58 1015.2
20260502182507 18 214 0.0 3.2 0.00 0.05 0.05 58 1015.2
20260502182010 18 208 0.0 3.2 0.00 0.05 0.05 58 1015.2
20260502181525 18 231 0.0 3.2 0.00 0.05 0.05 60 1015.2
20260502181010 18 215 0.0 3.2 0.00 0.05 0.05 62 1015.2
20260502180503 18 210 0.0 3.2 0.00 0.05 0.05 61 1015.3
20260502170509 21 193 1.6 4.8 0.00 0.05 0.05 48 1015.4
20260502164007 22 221 0.0 3.2 0.00 0.05 0.05 44 1015.6
20260502163508 23 198 0.0 3.2 0.00 0.05 0.05 43 1015.5
20260502163035 23 196 1.6 4.8 0.00 0.05 0.05 42 1015.6
20260502162508 23 194 0.0 4.8 0.00 0.05 0.05 42 1015.6
20260502162016 23 174 1.6 4.8 0.00 0.05 0.05 41 1015.7
20260502161529 23 228 1.6 9.7 0.00 0.05 0.05 41 1015.7
20260502161009 23 195 3.2 9.7 0.00 0.05 0.05 41 1015.8
20260502160511 23 196 1.6 8.0 0.00 0.05 0.05 39 1015.8
20260502152008 23 306 1.6 6.4 0.00 0.05 0.05 1016.2
20260502151522 23 161 1.6 6.4 0.00 0.05 0.05 1016.3
20260502151009 23 221 1.6 8.0 0.00 0.05 0.05 1016.4
20260502150509 23 200 1.6 9.7 0.00 0.05 0.05 44 1016.5
20260502130508 24 186 4.8 11.3 0.00 0.05 0.05 48 1018.1
20260502123507 23 148 6.4 11.3 0.00 0.05 0.05 46 1018.5
20260502123014 24 184 3.2 8.0 0.00 0.05 0.05 47 1018.5
20260502122506 24 193 3.2 11.3 0.00 0.05 0.05 46 1018.6
20260502122011 23 203 4.8 12.9 0.00 0.05 0.05 47 1018.8
20260502121516 24 220 6.4 12.9 0.00 0.05 0.05 47 1018.8
20260502121007 24 199 1.6 16.1 0.00 0.05 0.05 48 1018.8
20260502120514 23 74 4.8 14.5 0.00 0.05 0.05 45 1018.9
20260502115508 23 92 4.8 16.1 0.00 0.05 0.05 46 1019.2
20260502115011 23 181 9.7 16.1 0.00 0.05 0.05 45 1019.2
20260502114525 23 183 4.8 12.9 0.00 0.05 0.05 45 1019.3
20260502114011 23 219 3.2 14.5 0.00 0.05 0.05 45 1019.4
20260502113510 23 193 4.8 14.5 0.00 0.05 0.05 47 1019.5
20260502113010 23 181 4.8 14.5 0.00 0.05 0.05 46 1019.5
20260502112507 23 227 8.0 14.5 0.00 0.05 0.05 46 1019.6
20260502112007 23 182 3.2 11.3 0.00 0.05 0.05 45 1019.7
20260502111516 22 329 3.2 11.3 0.00 0.05 0.05 47 1019.8
20260502111006 22 329 4.8 14.5 0.00 0.05 0.05 46 1019.8
20260502110508 22 237 6.4 14.5 0.00 0.05 0.05 46 1019.9
20260502110022 22 213 8.0 11.3 0.00 0.05 0.05 46 1020.0
20260502105509 22 165 4.8 12.9 0.00 0.05 0.05 46 1020.0
20260502105008 22 141 4.8 12.9 0.00 0.05 0.05 47 1020.0
20260502104524 22 206 6.4 12.9 0.00 0.05 0.05 46 1020.1
20260502104010 22 206 4.8 11.3 0.00 0.05 0.05 46 1020.2
20260502103511 22 197 4.8 12.9 0.00 0.05 0.05 47 1020.1
20260502103027 21 156 4.8 12.9 0.00 0.05 0.05 47 1020.2
20260502102512 21 177 3.2 11.3 0.00 0.05 0.05 47 1020.3
20260502102007 21 205 4.8 11.3 0.00 0.05 0.05 48 1020.4
20260502101516 21 202 4.8 9.7 0.00 0.05 0.05 52 1020.4
20260502101006 20 51 1.6 3.2 0.00 0.05 0.05 64 1020.4
20260502100509 19 79 1.6 4.8 0.00 0.05 0.05 61 1020.5
20260502091528 16 113 3.2 4.8 0.00 0.05 0.05 71 1020.9
20260502091011 15 12 1.6 4.8 0.00 0.05 0.05 71 1021.0
20260502090507 15 67 3.2 4.8 0.00 0.05 0.05 71 1021.0
20260502071524 11 160 0.0 3.2 0.00 0.00 0.00 66 1021.9
20260502071009 11 188 0.0 3.2 0.00 0.00 0.00 66 1022.1
20260502070517 11 190 1.6 3.2 0.00 0.00 0.00 66 1022.3
20260502070018 10 209 1.6 3.2 0.00 0.00 0.00 68 1022.2
20260502065506 10 199 0.0 3.2 0.00 0.00 0.00 69 1022.0
20260502065006 10 200 0.0 3.2 0.00 0.00 0.00 70 1021.8
20260502064517 10 206 0.0 3.2 0.00 0.00 0.00 70 1021.8
20260502064007 10 175 0.0 3.2 0.00 0.00 0.00 71 1021.7
20260502063509 10 170 0.0 3.2 0.00 0.00 0.00 70 1021.7
20260502063004 9 191 0.0 3.2 0.00 0.00 0.00 71 1021.7
20260502062503 9 232 0.0 3.2 0.00 0.00 0.00 72 1021.8
20260502062002 9 107 0.0 3.2 0.00 0.00 0.00 73 1021.8
20260502061506 8 137 0.0 3.2 0.00 0.00 0.00 74 1021.8
20260502061006 8 61 0.0 3.2 0.00 0.00 0.00 74 1022.1
20260502060502 8 61 0.0 1.6 0.00 0.00 0.00 74 1022.2
20260502060008 8 61 0.0 3.2 0.00 0.00 0.00 75 1022.3
20260502055506 8 61 0.0 3.2 0.00 0.00 0.00 75 1022.4
20260502055006 8 61 1.6 3.2 0.00 0.00 0.00 76 1022.4
20260502054514 7 55 1.6 3.2 0.00 0.00 0.00 75 1022.5
20260502054008 7 74 0.0 3.2 0.00 0.00 0.00 76 1022.6
20260502053506 7 71 0.0 3.2 0.00 0.00 0.00 78 1022.6
20260502053020 7 232 0.0 3.2 0.00 0.00 0.00 78 1022.7
20260502052511 7 51 1.6 3.2 0.00 0.00 0.00 79 1022.7
20260502052011 7 78 0.0 4.8 0.00 0.00 0.00 81 1022.7
20260502051505 7 87 3.2 4.8 0.00 0.00 0.00 80 1022.7
20260502051003 6 84 1.6 3.2 0.00 0.00 0.00 82 1022.7
20260502050503 6 201 0.0 3.2 0.00 0.00 0.00 82 1022.6
20260502050010 6 198 0.0 0.0 0.00 0.00 0.00 82 1022.3
20260502045503 6 199 0.0 0.0 0.00 0.00 0.00 82 1022.3
20260502045006 5 198 0.0 3.2 0.00 0.00 0.00 83 1022.3
20260502044510 5 198 0.0 3.2 0.00 0.00 0.00 85 1022.2
20260502044007 5 199 0.0 3.2 0.00 0.00 0.00 85 1022.2
20260502043507 5 199 0.0 3.2 0.00 0.00 0.00 85 1022.1
20260502043016 5 211 0.0 3.2 0.00 0.00 0.00 85 1022.1
20260502042506 4 211 0.0 3.2 0.00 0.00 0.00 85 1022.1
20260502042010 4 219 0.0 3.2 0.00 0.00 0.00 84 1022.1
20260502041525 4 219 0.0 0.0 0.00 0.00 0.00 84 1022.0
20260502041011 4 219 0.0 3.2 0.00 0.00 0.00 85 1022.0
20260502040510 4 219 0.0 3.2 0.00 0.00 0.00 85 1021.9
20260502040004 4 196 0.0 3.2 0.00 0.00 0.00 84 1021.9
20260502035505 4 248 0.0 3.2 0.00 0.00 0.00 85 1021.9
20260502035007 4 175 0.0 3.2 0.00 0.00 0.00 85 1021.9
20260502034511 4 175 0.0 3.2 0.00 0.00 0.00 85 1022.1
20260502034007 4 109 0.0 3.2 0.00 0.00 0.00 84 1022.0
20260502033508 4 107 0.0 3.2 0.00 0.00 0.00 83 1022.1
20260502033014 5 46 0.0 3.2 0.00 0.00 0.00 83 1022.2
20260502032507 5 46 0.0 3.2 0.00 0.00 0.00 83 1022.2
20260502032009 5 51 1.6 3.2 0.00 0.00 0.00 83 1022.3
20260502031520 5 39 1.6 6.4 0.00 0.00 0.00 84 1022.4
20260502031007 4 339 1.6 6.4 0.00 0.00 0.00 84 1022.6
20260502030511 4 86 0.0 4.8 0.00 0.00 0.00 85 1022.7
20260502030025 4 254 0.0 4.8 0.00 0.00 0.00 84 1022.5
20260502025519 4 127 0.0 3.2 0.00 0.00 0.00 84 1022.5
20260502025010 4 277 0.0 4.8 0.00 0.00 0.00 85 1022.6
20260502024514 4 207 0.0 4.8 0.00 0.00 0.00 84 1022.2
20260502024007 4 167 0.0 3.2 0.00 0.00 0.00 84 1022.2
20260502023505 4 167 0.0 3.2 0.00 0.00 0.00 84 1022.2
20260502023016 4 159 0.0 3.2 0.00 0.00 0.00 85 1022.3
20260502022506 3 159 0.0 3.2 0.00 0.00 0.00 85 1022.3